| time (UTC) | temp F | wind direction | speed MPH | gust MPH | rain 1hr in | rain 24hr in | rain mn in | humidity % | barometer mb |
| 20260902033516 | 74 | 0.0 | 0.0 | 0.00 | 0.00 | 0.00 | 92 | 1014.4 | |
| 20260902032516 | 74 | 0.0 | 0.0 | 0.00 | 0.00 | 0.00 | 91 | 1014.4 | |
| 20260902031516 | 73 | 0.0 | 0.0 | 0.00 | 0.00 | 0.00 | 91 | 1014.4 | |
| 20260902030516 | 74 | 0.0 | 0.0 | 0.00 | 0.00 | 0.00 | 91 | 1014.4 | |
| 20260902025536 | 74 | 0.0 | 0.0 | 0.00 | 0.00 | 0.00 | 91 | 1014.6 | |
| 20260902024616 | 74 | 0.0 | 0.0 | 0.00 | 0.00 | 0.00 | 91 | 1014.6 | |
| 20260902023516 | 74 | 0.0 | 0.0 | 0.00 | 0.00 | 0.00 | 90 | 1014.4 | |
| 20260902022516 | 75 | 0.0 | 0.0 | 0.00 | 0.00 | 0.00 | 89 | 1014.3 | |
| 20260902021536 | 75 | 0.0 | 0.0 | 0.00 | 0.00 | 0.00 | 90 | 1014.3 | |
| 20260902020516 | 75 | 0.0 | 0.0 | 0.00 | 0.00 | 0.00 | 90 | 1014.0 | |
| 20260902015556 | 75 | 0.0 | 0.0 | 0.00 | 0.00 | 0.00 | 88 | 1013.9 | |
| 20260902014516 | 76 | 0.0 | 0.0 | 0.00 | 0.00 | 0.00 | 88 | 1013.8 | |
| 20260902013516 | 76 | 0.0 | 0.0 | 0.00 | 0.00 | 0.00 | 88 | 1013.7 | |
| 20260902012517 | 76 | 0.0 | 0.0 | 0.00 | 0.00 | 0.00 | 88 | 1013.6 | |
| 20260902011516 | 76 | 0.0 | 0.0 | 0.00 | 0.00 | 0.00 | 88 | 1013.5 | |
| 20260902010536 | 77 | 0.0 | 0.0 | 0.00 | 0.00 | 0.00 | 86 | 1013.5 | |
| 20260902005536 | 77 | 0.0 | 0.0 | 0.00 | 0.00 | 0.00 | 86 | 1013.3 | |
| 20260902004516 | 78 | 0.0 | 0.0 | 0.00 | 0.00 | 0.00 | 86 | 1013.2 | |
| 20260902003516 | 78 | 0.0 | 0.0 | 0.00 | 0.00 | 0.00 | 86 | 1013.1 | |
| 20260902002516 | 79 | 0.0 | 2.0 | 0.00 | 0.00 | 0.00 | 86 | 1013.3 | |
| 20260902001536 | 79 | 0.0 | 2.0 | 0.00 | 0.00 | 0.00 | 85 | 1013.3 | |
| 20260902000516 | 79 | 225 | 3.0 | 5.0 | 0.00 | 0.00 | 0.00 | 86 | 1013.1 |
| 20260901235536 | 79 | 203 | 4.0 | 6.0 | 0.00 | 0.00 | 0.00 | 85 | 1013.2 |
| 20260901234556 | 80 | 248 | 3.0 | 4.0 | 0.00 | 0.00 | 0.00 | 85 | 1013.3 |
| 20260901233536 | 80 | 248 | 5.0 | 8.0 | 0.00 | 0.00 | 0.00 | 84 | 1013.4 |
| 20260901232516 | 80 | 225 | 5.0 | 9.0 | 0.00 | 0.00 | 0.00 | 84 | 1013.4 |
| 20260901231516 | 80 | 225 | 6.0 | 9.0 | 0.00 | 0.00 | 0.00 | 84 | 1013.5 |
| 20260901230516 | 80 | 225 | 6.0 | 9.0 | 0.00 | 0.00 | 0.00 | 83 | 1013.9 |
| 20260901225516 | 80 | 248 | 6.0 | 9.0 | 0.00 | 0.00 | 0.00 | 81 | 1014.0 |
| 20260901224518 | 81 | 225 | 9.0 | 14.0 | 0.00 | 0.00 | 0.00 | 81 | 1014.2 |
| 20260901223516 | 81 | 225 | 4.0 | 6.0 | 0.00 | 0.00 | 0.00 | 81 | 1014.2 |
| 20260901222516 | 81 | 225 | 2.0 | 6.0 | 0.00 | 0.00 | 0.00 | 82 | 1014.3 |
| 20260901221556 | 81 | 203 | 3.0 | 6.0 | 0.00 | 0.00 | 0.00 | 81 | 1014.1 |
| 20260901220516 | 82 | 203 | 2.0 | 4.0 | 0.00 | 0.00 | 0.00 | 80 | 1014.1 |
| 20260901215516 | 82 | 203 | 4.0 | 7.0 | 0.00 | 0.00 | 0.00 | 77 | 1014.2 |
| 20260901214516 | 84 | 225 | 4.0 | 6.0 | 0.00 | 0.00 | 0.00 | 72 | 1014.1 |
| 20260901213536 | 84 | 225 | 8.0 | 13.0 | 0.00 | 0.00 | 0.00 | 70 | 1014.2 |
| 20260901212536 | 84 | 248 | 7.0 | 12.0 | 0.00 | 0.00 | 0.00 | 70 | 1014.4 |
| 20260901211536 | 85 | 248 | 8.0 | 12.0 | 0.00 | 0.00 | 0.00 | 68 | 1014.3 |
| 20260901210557 | 85 | 248 | 9.0 | 17.0 | 0.00 | 0.00 | 0.00 | 68 | 1014.4 |
| 20260901205516 | 87 | 225 | 11.0 | 17.0 | 0.00 | 0.00 | 0.00 | 66 | 1014.3 |
| 20260901204516 | 87 | 225 | 11.0 | 16.0 | 0.00 | 0.00 | 0.00 | 65 | 1014.4 |
| 20260901203516 | 87 | 225 | 11.0 | 20.0 | 0.00 | 0.00 | 0.00 | 65 | 1014.2 |
| 20260901202556 | 86 | 225 | 11.0 | 17.0 | 0.00 | 0.00 | 0.00 | 66 | 1014.4 |
| 20260901201516 | 86 | 225 | 10.0 | 15.0 | 0.00 | 0.00 | 0.00 | 67 | 1014.4 |
| 20260901200516 | 85 | 225 | 8.0 | 13.0 | 0.00 | 0.00 | 0.00 | 71 | 1014.4 |
| 20260901195516 | 85 | 225 | 9.0 | 13.0 | 0.00 | 0.00 | 0.00 | 70 | 1014.3 |
| 20260901194516 | 86 | 225 | 9.0 | 13.0 | 0.00 | 0.00 | 0.00 | 68 | 1014.3 |
| 20260901193516 | 86 | 225 | 9.0 | 15.0 | 0.00 | 0.00 | 0.00 | 70 | 1014.2 |
| 20260901192536 | 86 | 225 | 9.0 | 14.0 | 0.00 | 0.00 | 0.00 | 70 | 1014.2 |
| 20260901191516 | 85 | 203 | 8.0 | 12.0 | 0.00 | 0.00 | 0.00 | 73 | 1014.2 |
| 20260901190516 | 85 | 203 | 7.0 | 11.0 | 0.00 | 0.00 | 0.00 | 72 | 1014.1 |
| 20260901185516 | 84 | 203 | 7.0 | 12.0 | 0.00 | 0.00 | 0.00 | 74 | 1014.1 |
| 20260901184516 | 84 | 225 | 8.0 | 13.0 | 0.00 | 0.00 | 0.00 | 74 | 1014.0 |
| 20260901183536 | 84 | 203 | 8.0 | 15.0 | 0.00 | 0.00 | 0.00 | 72 | 1014.0 |
| 20260901182516 | 84 | 180 | 10.0 | 17.0 | 0.00 | 0.00 | 0.00 | 73 | 1013.8 |
| 20260901181536 | 83 | 203 | 7.0 | 13.0 | 0.00 | 0.00 | 0.00 | 74 | 1013.9 |
| 20260901180516 | 82 | 203 | 9.0 | 13.0 | 0.00 | 0.00 | 0.00 | 75 | 1014.2 |
| 20260901175516 | 83 | 180 | 7.0 | 12.0 | 0.00 | 0.00 | 0.00 | 73 | 1014.4 |
| 20260901174516 | 82 | 203 | 7.0 | 14.0 | 0.00 | 0.00 | 0.00 | 74 | 1014.4 |
| 20260901173516 | 82 | 203 | 9.0 | 15.0 | 0.00 | 0.00 | 0.00 | 74 | 1014.8 |
| 20260901172516 | 82 | 225 | 7.0 | 11.0 | 0.00 | 0.00 | 0.00 | 76 | 1014.6 |
| 20260901171537 | 81 | 225 | 6.0 | 9.0 | 0.00 | 0.00 | 0.00 | 78 | 1014.9 |
| 20260901170516 | 82 | 225 | 6.0 | 11.0 | 0.00 | 0.00 | 0.00 | 77 | 1014.7 |
| 20260901165537 | 82 | 225 | 9.0 | 12.0 | 0.00 | 0.00 | 0.00 | 76 | 1015.0 |
| 20260901164517 | 81 | 248 | 11.0 | 15.0 | 0.00 | 0.00 | 0.00 | 76 | 1015.1 |
| 20260901163536 | 82 | 225 | 12.0 | 17.0 | 0.00 | 0.00 | 0.00 | 73 | 1015.0 |
| 20260901162516 | 82 | 225 | 11.0 | 16.0 | 0.00 | 0.00 | 0.00 | 72 | 1014.9 |
| 20260901161516 | 83 | 225 | 10.0 | 14.0 | 0.00 | 0.00 | 0.00 | 71 | 1014.9 |
| 20260901160516 | 84 | 248 | 12.0 | 19.0 | 0.00 | 0.00 | 0.00 | 69 | 1015.0 |
| 20260901155544 | 83 | 248 | 13.0 | 15.0 | 0.00 | 0.00 | 0.00 | 71 | 1015.1 |
| 20260901155101 | 83 | 248 | 14.0 | 19.0 | 0.00 | 0.00 | 0.00 | 71 | 1015.2 |
| 20260901154516 | 83 | 225 | 12.0 | 19.0 | 0.00 | 0.00 | 0.00 | 72 | 1015.2 |
| 20260901153516 | 84 | 225 | 10.0 | 14.0 | 0.00 | 0.00 | 0.00 | 71 | 1014.9 |
| 20260901152516 | 84 | 248 | 9.0 | 15.0 | 0.00 | 0.00 | 0.00 | 70 | 1014.7 |
| 20260901151516 | 85 | 248 | 10.0 | 14.0 | 0.00 | 0.00 | 0.00 | 69 | 1014.9 |
| 20260901150516 | 84 | 248 | 11.0 | 16.0 | 0.00 | 0.00 | 0.00 | 69 | 1014.9 |
| 20260901145516 | 84 | 248 | 11.0 | 16.0 | 0.00 | 0.00 | 0.00 | 69 | 1015.1 |
| 20260901144516 | 84 | 248 | 8.0 | 13.0 | 0.00 | 0.00 | 0.00 | 71 | 1015.0 |
| 20260901143516 | 83 | 248 | 10.0 | 15.0 | 0.00 | 0.00 | 0.00 | 71 | 1014.9 |
| 20260901142516 | 84 | 248 | 11.0 | 17.0 | 0.00 | 0.00 | 0.00 | 69 | 1014.9 |
| 20260901141516 | 84 | 248 | 9.0 | 17.0 | 0.00 | 0.00 | 0.00 | 71 | 1014.9 |
| 20260901140516 | 83 | 248 | 10.0 | 16.0 | 0.00 | 0.00 | 0.00 | 71 | 1015.0 |
| 20260901135537 | 82 | 248 | 9.0 | 13.0 | 0.00 | 0.00 | 0.00 | 71 | 1014.8 |
| 20260901134537 | 81 | 225 | 10.0 | 14.0 | 0.00 | 0.00 | 0.00 | 74 | 1014.7 |
| 20260901133516 | 81 | 225 | 8.0 | 14.0 | 0.00 | 0.00 | 0.00 | 75 | 1014.7 |
| 20260901132516 | 81 | 225 | 8.0 | 11.0 | 0.00 | 0.00 | 0.00 | 75 | 1014.6 |
| 20260901131536 | 81 | 225 | 8.0 | 12.0 | 0.00 | 0.00 | 0.00 | 75 | 1014.8 |
| 20260901130516 | 81 | 248 | 9.0 | 14.0 | 0.00 | 0.00 | 0.00 | 75 | 1014.8 |
| 20260901125536 | 80 | 248 | 9.0 | 15.0 | 0.00 | 0.00 | 0.00 | 76 | 1014.9 |
| 20260901124536 | 79 | 225 | 9.0 | 12.0 | 0.00 | 0.00 | 0.00 | 78 | 1014.8 |
| 20260901123557 | 79 | 225 | 8.0 | 14.0 | 0.00 | 0.00 | 0.00 | 79 | 1014.9 |
| 20260901122517 | 78 | 225 | 6.0 | 9.0 | 0.00 | 0.00 | 0.00 | 80 | 1014.9 |
| 20260901121516 | 78 | 225 | 7.0 | 13.0 | 0.00 | 0.00 | 0.00 | 80 | 1014.9 |
| 20260901120517 | 78 | 225 | 7.0 | 11.0 | 0.00 | 0.00 | 0.00 | 80 | 1014.9 |
| 20260901115517 | 77 | 225 | 7.0 | 11.0 | 0.00 | 0.00 | 0.00 | 81 | 1014.8 |
| 20260901114517 | 77 | 248 | 7.0 | 10.0 | 0.00 | 0.00 | 0.00 | 81 | 1014.8 |
| 20260901113516 | 77 | 248 | 8.0 | 12.0 | 0.00 | 0.00 | 0.00 | 82 | 1014.8 |
| 20260901112537 | 77 | 248 | 7.0 | 10.0 | 0.00 | 0.00 | 0.00 | 83 | 1014.6 |
| 20260901111516 | 76 | 225 | 6.0 | 10.0 | 0.00 | 0.00 | 0.00 | 84 | 1014.5 |
| 20260901110517 | 75 | 225 | 6.0 | 9.0 | 0.00 | 0.00 | 0.00 | 85 | 1014.4 |
| 20260901105517 | 75 | 225 | 4.0 | 7.0 | 0.00 | 0.00 | 0.00 | 85 | 1014.4 |
| 20260901104538 | 75 | 225 | 5.0 | 7.0 | 0.00 | 0.00 | 0.00 | 85 | 1014.3 |
| 20260901103517 | 75 | 203 | 4.0 | 6.0 | 0.00 | 0.00 | 0.00 | 85 | 1014.3 |
| 20260901102516 | 75 | 203 | 5.0 | 7.0 | 0.00 | 0.00 | 0.00 | 85 | 1014.2 |
| 20260901101537 | 75 | 203 | 6.0 | 8.0 | 0.00 | 0.00 | 0.00 | 85 | 1014.2 |
| 20260901100516 | 75 | 203 | 5.0 | 7.0 | 0.00 | 0.00 | 0.00 | 86 | 1014.2 |
| 20260901095517 | 75 | 225 | 4.0 | 7.0 | 0.00 | 0.00 | 0.00 | 86 | 1014.1 |
| 20260901094517 | 75 | 225 | 5.0 | 7.0 | 0.00 | 0.00 | 0.00 | 86 | 1014.2 |
| 20260901093516 | 75 | 203 | 5.0 | 7.0 | 0.00 | 0.00 | 0.00 | 86 | 1014.2 |
| 20260901092517 | 75 | 203 | 5.0 | 6.0 | 0.00 | 0.00 | 0.00 | 86 | 1014.1 |
| 20260901091517 | 75 | 225 | 5.0 | 8.0 | 0.00 | 0.00 | 0.00 | 86 | 1014.1 |
| 20260901090517 | 74 | 225 | 5.0 | 8.0 | 0.00 | 0.00 | 0.00 | 86 | 1014.1 |
| 20260901085557 | 74 | 203 | 5.0 | 7.0 | 0.00 | 0.00 | 0.00 | 86 | 1014.2 |
| 20260901084517 | 74 | 203 | 5.0 | 7.0 | 0.00 | 0.00 | 0.00 | 87 | 1014.2 |
| 20260901083537 | 74 | 203 | 4.0 | 7.0 | 0.00 | 0.00 | 0.00 | 87 | 1014.2 |
| 20260901082543 | 74 | 225 | 3.0 | 5.0 | 0.00 | 0.00 | 0.00 | 87 | 1014.2 |
| 20260901082017 | 74 | 203 | 3.0 | 6.0 | 0.00 | 0.00 | 0.00 | 87 | 1014.3 |
| 20260901081017 | 74 | 203 | 4.0 | 6.0 | 0.00 | 0.00 | 0.00 | 87 | 1014.3 |
| 20260901080017 | 74 | 203 | 5.0 | 7.0 | 0.00 | 0.00 | 0.00 | 86 | 1014.3 |
| 20260901075016 | 74 | 225 | 5.0 | 9.0 | 0.00 | 0.00 | 0.00 | 86 | 1014.3 |
| 20260901074017 | 74 | 203 | 5.0 | 7.0 | 0.00 | 0.00 | 0.00 | 87 | 1014.4 |
| 20260901073037 | 74 | 203 | 4.0 | 6.0 | 0.00 | 0.00 | 0.00 | 87 | 1014.3 |
| 20260901072017 | 74 | 203 | 5.0 | 7.0 | 0.00 | 0.00 | 0.00 | 87 | 1014.3 |
| 20260901071016 | 74 | 180 | 3.0 | 4.0 | 0.00 | 0.00 | 0.00 | 87 | 1014.4 |
| 20260901070057 | 74 | 203 | 3.0 | 5.0 | 0.00 | 0.00 | 0.00 | 87 | 1014.6 |
| 20260901065037 | 74 | 203 | 3.0 | 5.0 | 0.00 | 0.00 | 0.00 | 87 | 1014.6 |
| 20260901064016 | 74 | 203 | 4.0 | 6.0 | 0.00 | 0.00 | 0.00 | 87 | 1014.5 |
| 20260901063017 | 74 | 180 | 3.0 | 5.0 | 0.00 | 0.00 | 0.00 | 87 | 1014.6 |
| 20260901062017 | 74 | 158 | 1.0 | 3.0 | 0.00 | 0.00 | 0.00 | 86 | 1014.6 |
| 20260901061037 | 74 | 180 | 1.0 | 4.0 | 0.00 | 0.00 | 0.00 | 87 | 1014.5 |
| 20260901060016 | 74 | 180 | 2.0 | 4.0 | 0.00 | 0.00 | 0.00 | 86 | 1014.6 |
| 20260901055037 | 74 | 180 | 3.0 | 6.0 | 0.00 | 0.00 | 0.00 | 86 | 1014.7 |
| 20260901054037 | 74 | 180 | 4.0 | 6.0 | 0.00 | 0.00 | 0.00 | 86 | 1014.9 |
| 20260901053037 | 74 | 203 | 3.0 | 4.0 | 0.00 | 0.00 | 0.00 | 86 | 1014.8 |
| 20260901052017 | 74 | 180 | 2.0 | 5.0 | 0.00 | 0.00 | 0.00 | 87 | 1014.7 |
| 20260901051017 | 74 | 158 | 3.0 | 7.0 | 0.00 | 0.00 | 0.00 | 87 | 1014.7 |
| 20260901050017 | 74 | 180 | 3.0 | 5.0 | 0.00 | 0.00 | 0.00 | 87 | 1014.7 |
| 20260901045017 | 74 | 180 | 2.0 | 4.0 | 0.00 | 0.00 | 0.00 | 87 | 1014.7 |
| 20260901044017 | 74 | 180 | 1.0 | 4.0 | 0.00 | 0.00 | 0.00 | 87 | 1014.9 |
| 20260901043037 | 74 | 0.0 | 2.0 | 0.00 | 0.00 | 0.00 | 87 | 1014.9 | |
| 20260901042017 | 73 | 0.0 | 2.0 | 0.00 | 0.00 | 0.00 | 87 | 1014.9 | |
| 20260901041057 | 73 | 135 | 1.0 | 5.0 | 0.00 | 0.00 | 0.00 | 87 | 1014.7 |
| 20260901040037 | 73 | 135 | 1.0 | 2.0 | 0.00 | 0.00 | 0.00 | 86 | 1014.8 |
| 20260901035016 | 74 | 0.0 | 0.0 | 0.00 | 0.00 | 0.00 | 85 | 1015.0 |